Home > Weather > Sheboygan > Past weeks

Flag for USA Weather for the Past 2 Weeks in Sheboygan, Wisconsin, USA

Now
41 °F

Clear.


Feels Like: 38 °F
Forecast: 39 / 62 °F
Wind: 5 mph from Southwest

Location: Sheboygan County Memorial Airport

Current Time: May 3, 2016 at 3:47:35 AM

Latest Report: May 3, 2016 at 2:53 AM


Visibility: 10 mi

Pressure: 29.96 "Hg

Humidity: 74%

Dew Point: 33 °F

Location of SheboyganLocation

Historic Weather in Sheboygan — Graph

°F

Sheboygan Temperature Yesterday

Maximum temperature yesterday: 59 °F (at 2:53 PM)
Minimum temperature yesterday: 38 °F (at 4:53 AM)
Average temperature yesterday: 49 °F

High & Low Weather Summary for the Past Weeks

 TemperatureHumidityPressure
High79 °F (Apr 18, 12:53 PM)97% (Apr 21, 5:01 AM)30.36 "Hg (Apr 21, 5:01 AM)
Low34 °F (Apr 23, 4:53 AM)29% (Apr 18, 11:53 AM)29.58 "Hg (Apr 25, 5:04 PM)
Average46 °F73%30.05 "Hg
* Reported Apr 18 1:53 AM — May 3 1:53 AM, Sheboygan, Weather by CustomWeather, © 2016

Note: Actual official high and low records may vary slightly from our data, if they occured in-between our weather recording intervals... More about our weather records

Advertising

Sheboygan Weather History for the Previous 24 Hours

Scroll right to see more
 ConditionsComfort  
Time TempWeatherWind HumidityBarometerVisibility
1:53 AM
Tue, May 3
39 °FClear.5 mph82%29.98 "Hg10 mi
12:53 AM42 °FClear.3 mph76%29.99 "Hg10 mi
11:53 PM
Mon, May 2
43 °FClear.5 mph74%30.00 "Hg10 mi
10:53 PM43 °FClear.3 mph74%30.01 "Hg10 mi
9:53 PM42 °FClear.No wind76%30.02 "Hg10 mi
8:53 PM47 °FSunny.No wind66%30.02 "Hg10 mi
7:53 PM49 °FSunny.No wind57%30.02 "Hg10 mi
6:53 PM55 °FSunny.6 mph45%30.02 "Hg10 mi
5:53 PM58 °FSunny.9 mph41%30.03 "Hg10 mi
4:53 PM59 °FSunny.9 mph39%30.04 "Hg10 mi
3:53 PM59 °FSunny.14 mph42%30.05 "Hg10 mi
2:53 PM59 °FSunny.14 mph44%30.06 "Hg10 mi
1:53 PM58 °FSunny.12 mph51%30.07 "Hg10 mi
12:53 PM58 °FSunny.9 mph51%30.08 "Hg10 mi
11:53 AM56 °FSunny.5 mph55%30.09 "Hg10 mi
10:53 AM52 °FSunny.7 mph59%30.10 "Hg10 mi
9:53 AM56 °FSunny.8 mph51%30.09 "Hg10 mi
8:53 AM52 °FSunny.6 mph57%30.09 "Hg10 mi
7:53 AM47 °FSunny.8 mph69%30.09 "Hg10 mi
6:53 AM43 °FSunny.5 mph76%30.10 "Hg10 mi
5:53 AM39 °FClear.8 mph79%30.10 "Hg10 mi
4:53 AM38 °FClear.7 mph83%30.10 "Hg10 mi
3:53 AM40 °FClear.6 mph80%30.10 "Hg10 mi
Weather by CustomWeather, © 2016

See weather overviewHow to use our weather pages